Content
SEND FEEDBACK

Daily
Averages
Monthly
Summary
United States of America

ALBANY, NEW YORK


Home > North America > United States > New York
Elevation: 275 feet     Latitude: 42 45N     Longitude: 073 48W

WEATHER
 
SELECT A DAY
Number of Records: 206,395;   Date Range: 1/1/95 - 7/20/14
 
SHARE

PRINT THIS DATA

[ ← Previous Day ]
WEATHER ALMANAC - MARCH 25, 2013
[ Next Day → ]
[ °C ]   °F
Weather ElementAverageHighLow
Temperature36.2 °F42.1 °F (1:51 pm)28.9 °F (4:51 am)
Dewpoint23.5 °F27 °F (11:51 pm)21 °F (2:51 am)
Humidity60.3 %72 % (4:51 am)49 % (1:51 pm)
Barometer29.65 in29.76 in (1:51 am)29.55 in (3:51 pm)
Wind Speed8.4 mph15 mph (2:51 pm)
Wind Gust18.4 mph (3:51 pm)
Weather ElementAverage
Visibility10 mi
Wind DirectionESE (119.1 °)

Weather ElementTotal
Precipitation---
Heating Degree Days29.5 (Base 65)
Averaged from 23 records on March 25, 2013
WEATHER CONDITIONS BREAKOUT
WIND DIRECTION BREAKOUT
WEATHER BY HOUR - MARCH 25, 2013
[ °C ]   °F
Local TimeTemperatureDewpointHumidityBarometerVisibilityWind DirectionWind SpeedGust SpeedPrecipitationEventsConditions
1:51 AM30.9 °F21.9 °F69 %29.76 in10.0 miNorth (360°)5.8 mphOvercast
2:51 AM30.0 °F21.0 °F69 %29.75 in10.0 miNorth (350°)5.8 mphOvercast
3:51 AM30.0 °F21.0 °F69 %29.73 in10.0 miNorth (360°)5.8 mphOvercast
4:51 AM28.9 °F21.0 °F72 %29.73 in10.0 miNorth (10°)8.1 mphOvercast
5:51 AM28.9 °F21.0 °F72 %29.72 in10.0 miNorth (10°)6.9 mphOvercast
6:51 AM30.0 °F21.0 °F69 %29.72 in10.0 miNNE (20°)5.8 mphOvercast
7:51 AM30.9 °F21.9 °F69 %29.73 in10.0 miNorth (10°)8.1 mphOvercast
8:51 AM32.0 °F21.9 °F66 %29.72 in10.0 miNNE (20°)6.9 mphOvercast
9:51 AM34.0 °F23.0 °F64 %29.70 in10.0 miNNE (20°)9.2 mphOvercast
10:51 AM37.0 °F21.9 °F54 %29.68 in10.0 miNE (40°)9.2 mphOvercast
11:51 AM39.0 °F24.1 °F55 %29.65 in10.0 miNNE (30°)8.1 mphOvercast
12:51 PM41.0 °F24.1 °F51 %29.63 in10.0 miNorth (10°)10.4 mphOvercast
1:51 PM42.1 °F24.1 °F49 %29.59 in10.0 miNorth (360°)10.4 mphOvercast
2:51 PM42.1 °F24.1 °F49 %29.57 in10.0 miNNE (30°)15.0 mphOvercast
3:51 PM42.1 °F24.1 °F49 %29.55 in10.0 miNorth (10°)12.7 mph18.4 mphOvercast
4:51 PM41.0 °F24.1 °F51 %29.55 in10.0 miNorth (10°)6.9 mphOvercast
5:51 PM39.9 °F25.0 °F55 %29.57 in10.0 miNorth (10°)8.1 mphOvercast
6:51 PM39.9 °F25.0 °F55 %29.58 in10.0 miNorth (10°)10.4 mphOvercast
7:51 PM39.9 °F25.0 °F55 %29.59 in10.0 miNorth (360°)8.1 mphOvercast
8:51 PM39.0 °F25.0 °F57 %29.61 in10.0 miNorth (10°)8.1 mphOvercast
9:51 PM39.0 °F26.1 °F60 %29.62 in10.0 miNorth (10°)9.2 mphOvercast
10:51 PM37.9 °F26.1 °F62 %29.62 in10.0 miNorth (350°)8.1 mphOvercast
11:51 PM37.9 °F27.0 °F65 %29.62 in10.0 miNNW (340°)5.8 mphOvercast
Hourly data recorded from KALB, located miles away from Albany, New York







STORIES FROM OUR PARTNERS